Regional Weather Roundup
Issued by NWS Newport/Morehead, NC

Current Version | Previous Version | Text Only | Print | Product List | Glossary On
Versions: 1 2 3 4 5 6 7 8 9 10 11 12 13 14 15 16 17 18 19 20 21 22 23 24 25 26 27 28 29 30 31 32 33 34 35 36 37 38 39 40 41 42 43 44 45 46 47 48 49 50
000
ASUS42 KMHX 301613
RWRMHX
WEATHER ROUNDUP FOR EASTERN NORTH CAROLINA
NATIONAL WEATHER SERVICE NEWPORT/MOREHEAD CITY NC
1200 PM EDT SAT APR 30 2016

NOTE: "FAIR" INDICATES FEW OR NO CLOUDS BELOW 12,000 FEET
WITH NO SIGNIFICANT WEATHER AND/OR OBSTRUCTIONS TO VISIBILITY

NCZ015>017-031-032-045>047-102-103-301700-
NORTH COAST

CITY           SKY/WX    TMP DP  RH WIND       PRES   REMARKS
EDENTON        CLOUDY    59  56  88 NE9       30.17S
ELIZABETH CITY CLOUDY    60  53  77 NE9       30.17S
KITTY HAWK     CLOUDY    56  51  84 NE9       30.14F
MANTEO         NOT AVBL

$$

NCZ045>047-081-094-103-104-301700-
CENTRAL COAST

CITY           SKY/WX    TMP DP  RH WIND       PRES   REMARKS
FRISCO         CLOUDY    60  53  77 NE9G17    30.14R
SWANQUARTER    NOT AVBL

$$

NCZ095-097-098-100-101-301700-
SOUTHERN COAST

CITY           SKY/WX    TMP DP  RH WIND       PRES   REMARKS
BEAUFORT       CLOUDY    63  57  81 NE9       30.14R
CEDAR ISLAND   NOT AVBL
JACKSONVILLE   CLOUDY    69  57  65 E7        30.13R
PINEY ISLAND   NOT AVBL
WILMINGTON     CLOUDY    65  59  81 E10       30.13R


$$

NCZ011>013-027>030-043-044-078>080-089-090>093-098-301700-
COASTAL PLAIN

CITY           SKY/WX    TMP DP  RH WIND       PRES   REMARKS
AHOSKIE        CLOUDY    57  53  86 NE5       30.18R
CLINTON        CLOUDY    68  60  77 CALM      30.13F
ELIZABETHTOWN  CLOUDY    68  60  76 CALM      30.12R
GOLDSBORO      CLOUDY    66  63  88 NE8       30.13R
GREENVILLE     CLOUDY    59  55  88 SE3       30.18R
HAVELOCK       CLOUDY    63  57  81 E5        30.16R
KENANSVILLE    CLOUDY    68  57  66 CALM      30.14S
KINSTON        MOSUNNY   64  55  72 E7        30.16R
NEW BERN       CLOUDY    62  55  77 NE6       30.16R
RICHLANDS      CLOUDY    69  58  67 NE7       30.14R
ROCKY MOUNT    CLOUDY    61  55  81 E5        30.16R
WASHINGTON     CLOUDY    58  55  88 NE5       30.17R
WHITEVILLE     CLOUDY    69  63  80 E6        30.11R HAZE

$$

AMZ130-135-150-152-154-156-158-170-250-252-270-ANZ085-086-088-633-658-670-301700-
MARINE OBSERVATIONS

STATION/POSITION TIME  TEMP    WIND        PRES    WAVE   SWELL
                       AIR SEA DIR/SP/G            HT/PER HT/PER
                 (UTC) (F)     (DEG/KT/KT) (MB)    (FT/S) (FT/S)
CHESAPEAKE LIGHT 1600   52                 1022.5
64 E VA BEACH    1550   52 53   20/ 16/ 17 1020.3    6/ 9   5/ 9
DUCK             1500   53 67   20/ 13/ 16 1020.8
2 E DUCK         1511      58                N/A     5/ 9   2/11
OREGON INLET     1500   55 62   10/ 10/ 16 1020.7
13E OREGON INLT  1600      54                N/A     6/10   5/10
HATTERAS CG      1500   60 69   30/ 11/ 17 1019.8
DIAMOND BUOY     1550   60 74   30/ 14/ 17 1020.1    5/10   5/10
CAPE LOOKOUT     1600   62      50/ 12/ 13 1020.0
BEAUFORT LAB     1500   62 68   80/  6/ 10 1019.5
30 SE NEW RVR IN 1525      68                N/A     3/10
27 SE WRIGHTSVLE 1508   66 69   80/ 16/ 21 1019.3
5 SE WRIGHTSVLE  1508   65 68   90/ 16/ 21 1020.0
225 S CAPE HAT   1550   70 71   60/ 14/ 16 1018.1    4/10   3/10
41 SE CHARLESTON 1550   74 73   70/  6/  8 1017.7    2/ 8   2/ 8

$$




USA.gov is the U.S. government's official web portal to all federal, state and local government web resources and services.